User: anonymous   Login
Location: Felsheim
(48.7267°N, 10.7386°E)
Time: 18:01:24
(UTC+00:00)
Language:

STARLINK-1269 - Orbit

View from above orbital plane
View from above orbital plane
View from above satellite
View from above satellite

Ground track
Ground track

The orbit data is extracted from the following two-line orbital elements,

1 45197U 20012V   20185.50001157  .00015734  00000-0  10968-2 0  9992
2 45197  52.9991   2.5049 0001536 111.9749 208.3481 15.05572895 21152
Epoch (UTC): 03 July 2020 12:00:01
Eccentricity: 0.0001536
inclination: 52.9991°
perigee height: 548 km
apogee height: 551 km
right ascension of ascending node: 2.5049°
argument of perigee: 111.9749°
revolutions per day: 15.05572895
mean anomaly at epoch: 208.3481°
orbit number at epoch: 2115

The dashed part of the orbit path shows where the satellite is in the earth's shadow,  

DLR